Weather in Sorokyne

Ukraine / Luhansk Region     48˚17′57″N   39˚44′03″E
temp.,
°C
wind,
m/s
gust,
m/s
humid.,
%
clouds,
%
prec.,
mm/h
press.,
hPa
HPBL,
m
28 november, sat
sat2823:00+3˚ssw4987100 0.0 1024291
02:00+3˚s4890100 0.0 1024249
05:00+3˚s5991100 0.0 1024248
08:00+3˚s598697 0.0 1025267
11:00+5˚sse588063 0.0 1025398
14:00+6˚se477963 0.0 1025342
17:00+3˚se510872 0.0 1025239
20:00+1˚se4118222 0.0 1025283
29 november, sun
sun2923:00+2˚se5109770 0.0 1025364
02:00+4˚se5109385 0.0 1025440
05:00+4˚se71296100 0.0 1025511
08:00+6˚sse91486100 0.0 1026661
11:00+8˚se8127795 0.0 1026781
14:00+8˚se7107597 0.0 1026863
17:00+6˚se71181100 0.0 1027770
20:00+5˚se6128599 0.0 1027594
30 november, mon
mon3023:00+5˚ese6118698 0.0 1027608
02:00+5˚ese7118499 0.0 1027604
05:00+4˚ese61180100 0.0 1027636
08:00+3˚ese6127576 0.0 1028523
11:00+4˚ese71270100 0.0 1027704
14:00+5˚ese7117095 0.0 1027871
17:00+4˚ese7126999 0.0 1027837
20:00+2˚ese6146673 0.0 1027665
1 december, tue
tue123:00+1˚ese614710 0.0 1028625
02:00ese614770 0.0 1028616
05:00−1˚e7148233 0.0 1028612
08:00ese8148142 0.0 1028656
11:00+2˚ese9136952 0.0 1028751
14:00+2˚ese7116960 0.0 1027889
17:00+1˚ese7127399 0.0 1028926
20:00ese7147799 0.0 1029694
2 december, wed
wed223:00−1˚ese7127997 0.0 1029653
02:00−1˚ese7118198 0.0 1029571
05:00−1˚ese61182100 0.0 1030592
08:00ese71181100 0.0 1030676
11:00ese71075100 0.0 1031605
14:00+1˚ese7116994 0.0 1030681
17:00−1˚ese6127529 0.0 1031548
20:00−2˚ese6127637 0.0 1031536